Time,TemperatureF,DewpointF,PressureIn,WindDirection,WindDirectionDegrees,WindSpeedMPH,WindSpeedGustMPH,Humidity,HourlyPrecipIn,Conditions,Clouds,dailyrainin,SoftwareType,DateUTC
2013-07-10 00:00:00,61.0,51.9,29.93,WSW,252,0.0,0.0,72,0.00,,,0.00,VWS V14.01,2013-07-10 06:00:00,
2013-07-10 00:02:00,56.3,50.2,29.93,WSW,248,0.0,0.0,80,0.00,,,0.00,VWS V14.01,2013-07-10 06:02:00,
2013-07-10 00:05:00,60.4,50.6,29.92,West,266,0.0,0.0,70,0.00,,,0.00,VWS V14.01,2013-07-10 06:05:00,
2013-07-10 00:07:00,56.5,51.4,29.93,WSW,248,0.0,0.0,83,0.00,,,0.00,VWS V14.01,2013-07-10 06:07:00,
2013-07-10 00:10:00,59.8,50.0,29.93,WSW,240,1.0,2.0,70,0.00,,,0.00,VWS V14.01,2013-07-10 06:10:00,
2013-07-10 00:12:00,56.7,51.9,29.93,WSW,248,0.0,0.0,84,0.00,,,0.00,VWS V14.01,2013-07-10 06:12:00,
2013-07-10 00:15:00,59.5,49.7,29.93,SW,229,1.0,1.0,70,0.00,,,0.00,VWS V14.01,2013-07-10 06:15:00,
2013-07-10 00:17:00,57.0,52.5,29.93,WSW,248,1.0,1.0,85,0.00,,,0.00,VWS V14.01,2013-07-10 06:17:00,
2013-07-10 00:20:00,59.6,49.4,29.93,WSW,248,2.0,2.0,69,0.00,,,0.00,VWS V14.01,2013-07-10 06:20:00,
2013-07-10 00:22:00,56.3,51.5,29.93,WSW,247,0.0,0.0,84,0.00,,,0.00,VWS V14.01,2013-07-10 06:22:00,
2013-07-10 00:25:00,59.4,50.0,29.93,WSW,248,1.0,2.0,71,0.00,,,0.00,VWS V14.01,2013-07-10 06:25:00,
2013-07-10 00:27:00,55.6,51.5,29.93,WSW,248,0.0,0.0,86,0.00,,,0.00,VWS V14.01,2013-07-10 06:27:00,
2013-07-10 00:30:00,59.4,50.0,29.93,WSW,248,0.0,1.0,71,0.00,,,0.00,VWS V14.01,2013-07-10 06:30:00,
2013-07-10 00:32:00,55.5,52.6,29.93,WNW,285,0.0,0.0,90,0.00,,,0.00,VWS V14.01,2013-07-10 06:32:00,
2013-07-10 00:35:00,59.0,50.0,29.93,WSW,248,0.0,0.0,72,0.00,,,0.00,VWS V14.01,2013-07-10 06:35:00,
2013-07-10 00:37:00,55.6,52.7,29.93,WNW,285,0.0,0.0,90,0.00,,,0.00,VWS V14.01,2013-07-10 06:37:00,
2013-07-10 00:40:00,58.5,49.5,29.93,WSW,248,0.0,0.0,72,0.00,,,0.00,VWS V14.01,2013-07-10 06:40:00,
2013-07-10 00:42:00,55.4,51.6,29.93,WNW,282,0.0,0.0,87,0.00,,,0.00,VWS V14.01,2013-07-10 06:42:00,
2013-07-10 00:45:00,58.0,49.4,29.93,WSW,248,0.0,0.0,73,0.00,,,0.00,VWS V14.01,2013-07-10 06:45:00,
2013-07-10 00:47:00,54.9,51.1,29.93,SW,229,0.0,0.0,87,0.00,,,0.00,VWS V14.01,2013-07-10 06:47:00,
2013-07-10 00:50:00,57.3,49.1,29.93,WSW,248,0.0,0.0,74,0.00,,,0.00,VWS V14.01,2013-07-10 06:50:00,
2013-07-10 00:52:00,54.9,50.5,29.93,SW,229,0.0,0.0,85,0.00,,,0.00,VWS V14.01,2013-07-10 06:52:00,
2013-07-10 00:55:00,56.6,49.1,29.93,WSW,247,0.0,0.0,76,0.00,,,0.00,VWS V14.01,2013-07-10 06:55:00,
2013-07-10 00:57:00,54.8,50.4,29.93,SW,229,0.0,0.0,85,0.00,,,0.00,VWS V14.01,2013-07-10 06:57:00,
2013-07-10 01:00:00,56.3,49.9,29.93,WSW,248,0.0,0.0,79,0.00,,,0.00,VWS V14.01,2013-07-10 07:00:00,
2013-07-10 01:02:00,54.6,49.9,29.93,SW,229,0.0,0.0,84,0.00,,,0.00,VWS V14.01,2013-07-10 07:02:00,
2013-07-10 01:05:00,56.4,51.3,29.93,WSW,248,0.0,0.0,83,0.00,,,0.00,VWS V14.01,2013-07-10 07:05:00,
2013-07-10 01:07:00,54.8,49.7,29.93,WSW,250,0.0,0.0,83,0.00,,,0.00,VWS V14.01,2013-07-10 07:07:00,
2013-07-10 01:10:00,56.6,51.8,29.93,WSW,247,0.0,0.0,84,0.00,,,0.00,VWS V14.01,2013-07-10 07:10:00,
2013-07-10 01:12:00,55.3,50.2,29.93,West,274,0.0,2.0,83,0.00,,,0.00,VWS V14.01,2013-07-10 07:12:00,
2013-07-10 01:15:00,56.9,52.4,29.93,WSW,247,1.0,1.0,85,0.00,,,0.00,VWS V14.01,2013-07-10 07:15:00,
2013-07-10 01:17:00,55.0,49.3,29.93,West,274,0.0,0.0,81,0.00,,,0.00,VWS V14.01,2013-07-10 07:17:00,
2013-07-10 01:20:00,56.7,51.6,29.93,WSW,248,0.0,1.0,83,0.00,,,0.00,VWS V14.01,2013-07-10 07:20:00,
2013-07-10 01:22:00,54.3,49.3,29.93,West,274,1.0,1.0,83,0.00,,,0.00,VWS V14.01,2013-07-10 07:22:00,
2013-07-10 01:25:00,55.9,51.5,29.93,WSW,248,0.0,0.0,85,0.00,,,0.00,VWS V14.01,2013-07-10 07:25:00,
2013-07-10 01:27:00,54.0,50.5,29.92,West,274,0.0,0.0,88,0.00,,,0.00,VWS V14.01,2013-07-10 07:27:00,
2013-07-10 01:30:00,55.5,52.0,29.93,WNW,285,0.0,0.0,88,0.00,,,0.00,VWS V14.01,2013-07-10 07:30:00,
2013-07-10 01:32:00,54.1,50.9,29.93,West,276,0.0,0.0,89,0.00,,,0.00,VWS V14.01,2013-07-10 07:32:00,
2013-07-10 01:35:00,55.6,52.7,29.93,WNW,285,0.0,0.0,90,0.00,,,0.00,VWS V14.01,2013-07-10 07:35:00,
2013-07-10 01:37:00,54.4,51.5,29.93,West,276,0.0,0.0,90,0.00,,,0.00,VWS V14.01,2013-07-10 07:37:00,
2013-07-10 01:40:00,55.6,52.1,29.93,WNW,285,0.0,0.0,88,0.00,,,0.00,VWS V14.01,2013-07-10 07:40:00,
2013-07-10 01:42:00,54.8,51.9,29.92,WNW,284,0.0,0.0,90,0.00,,,0.00,VWS V14.01,2013-07-10 07:42:00,
2013-07-10 01:45:00,55.1,51.6,29.93,West,270,0.0,0.0,88,0.00,,,0.00,VWS V14.01,2013-07-10 07:45:00,
2013-07-10 01:47:00,54.4,51.2,29.92,NW,316,2.0,2.0,89,0.00,,,0.00,VWS V14.01,2013-07-10 07:47:00,
2013-07-10 01:50:00,54.9,50.8,29.93,SW,229,0.0,0.0,86,0.00,,,0.00,VWS V14.01,2013-07-10 07:50:00,
2013-07-10 01:52:00,55.2,52.0,29.92,NW,318,1.0,2.0,89,0.00,,,0.00,VWS V14.01,2013-07-10 07:52:00,
2013-07-10 01:55:00,54.7,50.3,29.93,SW,229,0.0,0.0,85,0.00,,,0.00,VWS V14.01,2013-07-10 07:55:00,
2013-07-10 01:57:00,55.8,51.4,29.92,NNW,338,0.0,1.0,85,0.00,,,0.00,VWS V14.01,2013-07-10 07:57:00,
2013-07-10 02:00:00,54.8,49.7,29.93,SW,229,0.0,0.0,83,0.00,,,0.00,VWS V14.01,2013-07-10 08:00:00,
2013-07-10 02:02:00,55.8,51.0,29.92,NNW,337,0.0,0.0,84,0.00,,,0.00,VWS V14.01,2013-07-10 08:02:00,
2013-07-10 02:05:00,54.7,50.0,29.93,WSW,243,0.0,0.0,84,0.00,,,0.00,VWS V14.01,2013-07-10 08:05:00,
2013-07-10 02:07:00,55.6,50.5,29.92,East,92,0.0,0.0,83,0.00,,,0.00,VWS V14.01,2013-07-10 08:07:00,
2013-07-10 02:10:00,55.1,50.0,29.93,West,274,2.0,3.0,83,0.00,,,0.00,VWS V14.01,2013-07-10 08:10:00,
2013-07-10 02:12:00,55.5,50.4,29.92,West,280,0.0,0.0,83,0.00,,,0.00,VWS V14.01,2013-07-10 08:12:00,
2013-07-10 02:15:00,55.2,49.8,29.93,West,274,0.0,2.0,82,0.00,,,0.00,VWS V14.01,2013-07-10 08:15:00,
2013-07-10 02:17:00,54.2,49.2,29.92,WSW,242,0.0,0.0,83,0.00,,,0.00,VWS V14.01,2013-07-10 08:17:00,
2013-07-10 02:20:00,54.7,49.7,29.92,West,274,0.0,0.0,83,0.00,,,0.00,VWS V14.01,2013-07-10 08:20:00,
2013-07-10 02:22:00,53.3,49.2,29.92,WSW,253,0.0,0.0,86,0.00,,,0.00,VWS V14.01,2013-07-10 08:22:00,
2013-07-10 02:25:00,54.0,49.6,29.93,West,274,0.0,1.0,85,0.00,,,0.00,VWS V14.01,2013-07-10 08:25:00,
2013-07-10 02:27:00,52.5,48.4,29.92,WSW,243,1.0,2.0,86,0.00,,,0.00,VWS V14.01,2013-07-10 08:27:00,
2013-07-10 02:30:00,54.1,50.9,29.93,West,276,0.0,0.0,89,0.00,,,0.00,VWS V14.01,2013-07-10 08:30:00,
2013-07-10 02:33:00,51.8,47.8,29.92,WSW,250,2.0,3.0,86,0.00,,,0.00,VWS V14.01,2013-07-10 08:33:00,
2013-07-10 02:35:00,54.2,51.0,29.92,West,275,0.0,0.0,89,0.00,,,0.00,VWS V14.01,2013-07-10 08:35:00,
2013-07-10 02:38:00,51.6,48.2,29.92,WSW,238,0.0,0.0,88,0.00,,,0.00,VWS V14.01,2013-07-10 08:38:00,
2013-07-10 02:40:00,54.7,52.1,29.92,West,275,0.0,0.0,91,0.00,,,0.00,VWS V14.01,2013-07-10 08:40:00,
2013-07-10 02:43:00,51.5,48.1,29.92,WSW,238,0.0,0.0,88,0.00,,,0.00,VWS V14.01,2013-07-10 08:43:00,
2013-07-10 02:45:00,54.3,50.5,29.92,NW,317,2.0,3.0,87,0.00,,,0.00,VWS V14.01,2013-07-10 08:45:00,
2013-07-10 02:48:00,51.2,48.1,29.92,WSW,238,0.0,0.0,89,0.00,,,0.00,VWS V14.01,2013-07-10 08:48:00,
2013-07-10 02:50:00,54.9,52.0,29.92,NW,316,2.0,2.0,90,0.00,,,0.00,VWS V14.01,2013-07-10 08:50:00,
2013-07-10 02:53:00,51.1,48.0,29.92,WSW,238,0.0,0.0,89,0.00,,,0.00,VWS V14.01,2013-07-10 08:53:00,
2013-07-10 02:55:00,55.6,51.5,29.92,NW,321,1.0,2.0,86,0.00,,,0.00,VWS V14.01,2013-07-10 08:55:00,
2013-07-10 02:58:00,51.0,48.2,29.92,WSW,238,0.0,0.0,90,0.00,,,0.00,VWS V14.01,2013-07-10 08:58:00,
2013-07-10 03:00:00,55.9,51.1,29.92,NNW,338,0.0,1.0,84,0.00,,,0.00,VWS V14.01,2013-07-10 09:00:00,
2013-07-10 03:03:00,50.9,48.1,29.92,WSW,238,0.0,0.0,90,0.00,,,0.00,VWS V14.01,2013-07-10 09:03:00,
2013-07-10 03:05:00,55.7,50.6,29.92,WNW,294,0.0,1.0,83,0.00,,,0.00,VWS V14.01,2013-07-10 09:05:00,
2013-07-10 03:08:00,50.9,48.1,29.92,WSW,239,0.0,0.0,90,0.00,,,0.00,VWS V14.01,2013-07-10 09:08:00,
2013-07-10 03:10:00,55.6,50.5,29.92,WNW,302,0.0,0.0,83,0.00,,,0.00,VWS V14.01,2013-07-10 09:10:00,
2013-07-10 03:13:00,50.8,48.0,29.92,WSW,239,0.0,0.0,90,0.00,,,0.00,VWS V14.01,2013-07-10 09:13:00,
2013-07-10 03:15:00,54.9,49.8,29.92,WSW,250,0.0,0.0,83,0.00,,,0.00,VWS V14.01,2013-07-10 09:15:00,
2013-07-10 03:18:00,51.1,48.6,29.92,WSW,238,0.0,0.0,91,0.00,,,0.00,VWS V14.01,2013-07-10 09:18:00,
2013-07-10 03:20:00,53.4,49.3,29.92,WSW,252,0.0,0.0,86,0.00,,,0.00,VWS V14.01,2013-07-10 09:20:00,
2013-07-10 03:23:00,50.8,48.3,29.92,WSW,238,0.0,0.0,91,0.00,,,0.00,VWS V14.01,2013-07-10 09:23:00,
2013-07-10 03:25:00,52.9,48.5,29.92,West,266,2.0,3.0,85,0.00,,,0.00,VWS V14.01,2013-07-10 09:25:00,
2013-07-10 03:28:00,50.8,48.3,29.92,WSW,239,0.0,0.0,91,0.00,,,0.00,VWS V14.01,2013-07-10 09:28:00,
2013-07-10 03:30:00,52.1,48.0,29.92,WSW,249,2.0,2.0,86,0.00,,,0.00,VWS V14.01,2013-07-10 09:30:00,
2013-07-10 03:32:00,50.6,48.1,29.92,SW,232,2.0,2.0,91,0.00,,,0.00,VWS V14.01,2013-07-10 09:32:00,
2013-07-10 03:35:00,51.6,48.2,29.92,WSW,238,0.0,3.0,88,0.00,,,0.00,VWS V14.01,2013-07-10 09:35:00,
2013-07-10 03:38:00,50.8,48.3,29.92,SW,235,2.0,2.0,91,0.00,,,0.00,VWS V14.01,2013-07-10 09:38:00,
2013-07-10 03:40:00,51.6,48.2,29.92,WSW,238,0.0,0.0,88,0.00,,,0.00,VWS V14.01,2013-07-10 09:40:00,
2013-07-10 03:43:00,51.1,48.0,29.92,SW,232,1.0,3.0,89,0.00,,,0.00,VWS V14.01,2013-07-10 09:43:00,
2013-07-10 03:45:00,51.3,47.9,29.92,WSW,238,0.0,0.0,88,0.00,,,0.00,VWS V14.01,2013-07-10 09:45:00,
2013-07-10 03:48:00,51.2,48.1,29.92,WSW,240,2.0,2.0,89,0.00,,,0.00,VWS V14.01,2013-07-10 09:48:00,
2013-07-10 03:50:00,51.2,48.1,29.92,WSW,238,0.0,0.0,89,0.00,,,0.00,VWS V14.01,2013-07-10 09:50:00,
2013-07-10 03:53:00,51.2,47.8,29.92,WSW,239,0.0,0.0,88,0.00,,,0.00,VWS V14.01,2013-07-10 09:53:00,
2013-07-10 03:55:00,50.9,48.1,29.92,WSW,238,0.0,0.0,90,0.00,,,0.00,VWS V14.01,2013-07-10 09:55:00,
2013-07-10 03:58:00,50.7,47.3,29.92,WSW,239,0.0,0.0,88,0.00,,,0.00,VWS V14.01,2013-07-10 09:58:00,
2013-07-10 04:00:00,50.9,47.8,29.92,WSW,238,0.0,0.0,89,0.00,,,0.00,VWS V14.01,2013-07-10 10:00:00,
2013-07-10 04:03:00,50.0,46.6,29.92,WSW,239,0.0,0.0,88,0.00,,,0.00,VWS V14.01,2013-07-10 10:03:00,
2013-07-10 04:05:00,50.8,48.0,29.92,WSW,238,0.0,0.0,90,0.00,,,0.00,VWS V14.01,2013-07-10 10:05:00,
2013-07-10 04:08:00,49.3,46.2,29.92,WSW,239,0.0,0.0,89,0.00,,,0.00,VWS V14.01,2013-07-10 10:08:00,
2013-07-10 04:10:00,50.8,48.0,29.92,WSW,238,0.0,0.0,90,0.00,,,0.00,VWS V14.01,2013-07-10 10:10:00,
2013-07-10 04:13:00,49.1,46.6,29.92,WSW,239,0.0,0.0,91,0.00,,,0.00,VWS V14.01,2013-07-10 10:13:00,
2013-07-10 04:15:00,51.0,48.5,29.92,WSW,238,0.0,0.0,91,0.00,,,0.00,VWS V14.01,2013-07-10 10:15:00,
2013-07-10 04:18:00,49.0,46.8,29.93,WSW,239,0.0,0.0,92,0.00,,,0.00,VWS V14.01,2013-07-10 10:18:00,
2013-07-10 04:20:00,50.9,48.1,29.92,WSW,238,0.0,0.0,90,0.00,,,0.00,VWS V14.01,2013-07-10 10:20:00,
2013-07-10 04:23:00,49.2,47.3,29.92,West,269,1.0,1.0,93,0.00,,,0.00,VWS V14.01,2013-07-10 10:23:00,
2013-07-10 04:25:00,50.8,48.3,29.92,WSW,238,0.0,0.0,91,0.00,,,0.00,VWS V14.01,2013-07-10 10:25:00,
2013-07-10 04:28:00,49.4,46.9,29.92,West,267,0.0,0.0,91,0.00,,,0.00,VWS V14.01,2013-07-10 10:28:00,
2013-07-10 04:30:00,50.6,48.1,29.92,WSW,237,0.0,0.0,91,0.00,,,0.00,VWS V14.01,2013-07-10 10:30:00,
2013-07-10 04:33:00,49.3,46.8,29.93,West,267,0.0,0.0,91,0.00,,,0.00,VWS V14.01,2013-07-10 10:33:00,
2013-07-10 04:35:00,50.6,48.1,29.92,WSW,239,2.0,2.0,91,0.00,,,0.00,VWS V14.01,2013-07-10 10:35:00,
2013-07-10 04:38:00,49.8,47.9,29.92,West,266,0.0,0.0,93,0.00,,,0.00,VWS V14.01,2013-07-10 10:38:00,
2013-07-10 04:40:00,51.0,48.2,29.92,WSW,238,3.0,3.0,90,0.00,,,0.00,VWS V14.01,2013-07-10 10:40:00,
2013-07-10 04:43:00,49.4,46.3,29.93,West,269,0.0,0.0,89,0.00,,,0.00,VWS V14.01,2013-07-10 10:43:00,
2013-07-10 04:45:00,51.1,48.0,29.92,SW,232,1.0,3.0,89,0.00,,,0.00,VWS V14.01,2013-07-10 10:45:00,
2013-07-10 04:48:00,49.1,46.6,29.93,WSW,243,0.0,0.0,91,0.00,,,0.00,VWS V14.01,2013-07-10 10:48:00,
2013-07-10 04:50:00,51.2,47.8,29.92,WSW,239,0.0,2.0,88,0.00,,,0.00,VWS V14.01,2013-07-10 10:50:00,
2013-07-10 04:53:00,48.9,46.4,29.93,SW,217,2.0,2.0,91,0.00,,,0.00,VWS V14.01,2013-07-10 10:53:00,
2013-07-10 04:55:00,50.9,47.5,29.92,WSW,239,0.0,0.0,88,0.00,,,0.00,VWS V14.01,2013-07-10 10:55:00,
2013-07-10 04:58:00,48.7,45.9,29.93,SW,221,1.0,2.0,90,0.00,,,0.00,VWS V14.01,2013-07-10 10:58:00,
2013-07-10 05:00:00,50.3,46.9,29.93,WSW,239,0.0,0.0,88,0.00,,,0.00,VWS V14.01,2013-07-10 11:00:00,
2013-07-10 05:03:00,48.5,45.4,29.93,SW,221,0.0,0.0,89,0.00,,,0.00,VWS V14.01,2013-07-10 11:03:00,
2013-07-10 05:05:00,49.6,46.5,29.92,WSW,239,0.0,0.0,89,0.00,,,0.00,VWS V14.01,2013-07-10 11:05:00,
2013-07-10 05:08:00,47.9,44.8,29.93,SW,221,0.0,0.0,89,0.00,,,0.00,VWS V14.01,2013-07-10 11:08:00,
2013-07-10 05:10:00,49.2,46.7,29.92,WSW,239,0.0,0.0,91,0.00,,,0.00,VWS V14.01,2013-07-10 11:10:00,
2013-07-10 05:13:00,48.0,45.5,29.93,SW,221,0.0,0.0,91,0.00,,,0.00,VWS V14.01,2013-07-10 11:13:00,
2013-07-10 05:15:00,49.1,46.9,29.92,WSW,239,0.0,0.0,92,0.00,,,0.00,VWS V14.01,2013-07-10 11:15:00,
2013-07-10 05:18:00,47.6,44.8,29.93,SW,221,0.0,0.0,90,0.00,,,0.00,VWS V14.01,2013-07-10 11:18:00,
2013-07-10 05:20:00,49.1,46.9,29.92,WSW,239,0.0,0.0,92,0.00,,,0.00,VWS V14.01,2013-07-10 11:20:00,
2013-07-10 05:23:00,47.2,44.7,29.94,SW,221,0.0,0.0,91,0.00,,,0.00,VWS V14.01,2013-07-10 11:23:00,
2013-07-10 05:25:00,49.4,47.2,29.92,West,269,0.0,1.0,92,0.00,,,0.00,VWS V14.01,2013-07-10 11:25:00,
2013-07-10 05:28:00,47.3,45.1,29.94,SW,221,0.0,0.0,92,0.00,,,0.00,VWS V14.01,2013-07-10 11:28:00,
2013-07-10 05:30:00,49.2,46.4,29.92,West,266,0.0,0.0,90,0.00,,,0.00,VWS V14.01,2013-07-10 11:30:00,
2013-07-10 05:33:00,47.7,46.1,29.94,SW,221,0.0,0.0,94,0.00,,,0.00,VWS V14.01,2013-07-10 11:33:00,
2013-07-10 05:35:00,49.3,46.8,29.93,West,266,0.0,0.0,91,0.00,,,0.00,VWS V14.01,2013-07-10 11:35:00,
2013-07-10 05:38:00,47.7,45.8,29.94,SW,221,0.0,0.0,93,0.00,,,0.00,VWS V14.01,2013-07-10 11:38:00,
2013-07-10 05:40:00,49.7,46.9,29.93,West,269,0.0,0.0,90,0.00,,,0.00,VWS V14.01,2013-07-10 11:40:00,
2013-07-10 05:43:00,47.6,46.0,29.93,SW,221,0.0,0.0,94,0.00,,,0.00,VWS V14.01,2013-07-10 11:43:00,
2013-07-10 05:45:00,49.2,46.4,29.93,WSW,243,0.0,1.0,90,0.00,,,0.00,VWS V14.01,2013-07-10 11:45:00,
2013-07-10 05:48:00,47.8,46.4,29.94,SW,221,0.0,0.0,95,0.00,,,0.00,VWS V14.01,2013-07-10 11:48:00,
2013-07-10 05:50:00,48.9,46.4,29.93,SW,231,1.0,2.0,91,0.00,,,0.00,VWS V14.01,2013-07-10 11:50:00,
2013-07-10 05:53:00,47.7,46.1,29.94,WSW,245,0.0,0.0,94,0.00,,,0.00,VWS V14.01,2013-07-10 11:53:00,
2013-07-10 05:55:00,48.8,46.0,29.93,SW,221,1.0,3.0,90,0.00,,,0.00,VWS V14.01,2013-07-10 11:55:00,
2013-07-10 05:58:00,47.5,45.9,29.94,WSW,245,0.0,0.0,94,0.00,,,0.00,VWS V14.01,2013-07-10 11:58:00,
2013-07-10 06:00:00,48.6,45.5,29.93,SW,221,0.0,2.0,89,0.00,,,0.00,VWS V14.01,2013-07-10 12:00:00,
2013-07-10 06:03:00,47.3,45.7,29.94,WSW,250,0.0,1.0,94,0.00,,,0.00,VWS V14.01,2013-07-10 12:03:00,
2013-07-10 06:05:00,48.2,44.8,29.93,SW,221,0.0,0.0,88,0.00,,,0.00,VWS V14.01,2013-07-10 12:05:00,
2013-07-10 06:08:00,47.1,45.2,29.94,WSW,250,0.0,0.0,93,0.00,,,0.00,VWS V14.01,2013-07-10 12:08:00,
2013-07-10 06:10:00,47.8,45.0,29.94,SW,221,0.0,0.0,90,0.00,,,0.00,VWS V14.01,2013-07-10 12:10:00,
2013-07-10 06:13:00,47.8,46.4,29.94,West,260,0.0,0.0,95,0.00,,,0.00,VWS V14.01,2013-07-10 12:13:00,
2013-07-10 06:15:00,48.0,45.5,29.93,SW,221,0.0,0.0,91,0.00,,,0.00,VWS V14.01,2013-07-10 12:15:00,
2013-07-10 06:18:00,48.2,46.8,29.94,West,260,0.0,0.0,95,0.00,,,0.00,VWS V14.01,2013-07-10 12:18:00,
2013-07-10 06:20:00,47.2,44.1,29.93,SW,221,0.0,0.0,89,0.00,,,0.00,VWS V14.01,2013-07-10 12:20:00,
2013-07-10 06:23:00,48.1,45.9,29.94,West,262,2.0,3.0,92,0.00,,,0.00,VWS V14.01,2013-07-10 12:23:00,
2013-07-10 06:25:00,47.2,45.0,29.94,SW,221,0.0,0.0,92,0.00,,,0.00,VWS V14.01,2013-07-10 12:25:00,
2013-07-10 06:28:00,48.2,46.3,29.94,WSW,255,1.0,2.0,93,0.00,,,0.00,VWS V14.01,2013-07-10 12:28:00,
2013-07-10 06:30:00,47.5,45.6,29.94,SW,221,0.0,0.0,93,0.00,,,0.00,VWS V14.01,2013-07-10 12:30:00,
2013-07-10 06:33:00,48.5,46.3,29.94,West,266,0.0,1.0,92,0.00,,,0.00,VWS V14.01,2013-07-10 12:33:00,
2013-07-10 06:35:00,47.9,46.3,29.93,SW,221,0.0,0.0,94,0.00,,,0.00,VWS V14.01,2013-07-10 12:35:00,
2013-07-10 06:38:00,48.8,46.3,29.94,West,267,0.0,0.0,91,0.00,,,0.00,VWS V14.01,2013-07-10 12:38:00,
2013-07-10 06:40:00,47.5,45.6,29.93,SW,221,0.0,0.0,93,0.00,,,0.00,VWS V14.01,2013-07-10 12:40:00,
2013-07-10 06:43:00,49.3,46.8,29.94,West,267,0.0,0.0,91,0.00,,,0.00,VWS V14.01,2013-07-10 12:43:00,
2013-07-10 06:45:00,47.6,46.0,29.94,SW,221,0.0,0.0,94,0.00,,,0.00,VWS V14.01,2013-07-10 12:45:00,
2013-07-10 06:48:00,50.3,47.8,29.94,West,267,0.0,0.0,91,0.00,,,0.00,VWS V14.01,2013-07-10 12:48:00,
2013-07-10 06:50:00,47.8,46.2,29.94,WSW,244,0.0,0.0,94,0.00,,,0.00,VWS V14.01,2013-07-10 12:50:00,
2013-07-10 06:53:00,51.2,48.4,29.94,West,267,0.0,0.0,90,0.00,,,0.00,VWS V14.01,2013-07-10 12:53:00,
2013-07-10 06:55:00,47.6,46.0,29.94,WSW,245,0.0,0.0,94,0.00,,,0.00,VWS V14.01,2013-07-10 12:55:00,
2013-07-10 06:58:00,52.0,48.9,29.93,West,266,0.0,0.0,89,0.00,,,0.00,VWS V14.01,2013-07-10 12:58:00,
2013-07-10 07:00:00,47.4,45.8,29.94,WSW,250,1.0,1.0,94,0.00,,,0.00,VWS V14.01,2013-07-10 13:00:00,
2013-07-10 07:03:00,52.9,49.8,29.94,WNW,284,0.0,0.0,89,0.00,,,0.00,VWS V14.01,2013-07-10 13:03:00,
2013-07-10 07:05:00,47.1,45.2,29.94,WSW,250,0.0,1.0,93,0.00,,,0.00,VWS V14.01,2013-07-10 13:05:00,
2013-07-10 07:08:00,53.6,49.8,29.94,WNW,284,0.0,0.0,87,0.00,,,0.00,VWS V14.01,2013-07-10 13:08:00,
2013-07-10 07:10:00,47.3,45.7,29.94,WSW,250,0.0,0.0,94,0.00,,,0.00,VWS V14.01,2013-07-10 13:10:00,
2013-07-10 07:13:00,54.3,50.2,29.94,WNW,284,0.0,0.0,86,0.00,,,0.00,VWS V14.01,2013-07-10 13:13:00,
2013-07-10 07:15:00,48.1,46.7,29.94,West,276,0.0,0.0,95,0.00,,,0.00,VWS V14.01,2013-07-10 13:15:00,
2013-07-10 07:18:00,55.0,50.6,29.94,WNW,284,0.0,0.0,85,0.00,,,0.00,VWS V14.01,2013-07-10 13:18:00,
2013-07-10 07:20:00,48.5,47.1,29.93,WSW,256,0.0,0.0,95,0.00,,,0.00,VWS V14.01,2013-07-10 13:20:00,
2013-07-10 07:23:00,56.2,51.4,29.94,WNW,284,0.0,0.0,84,0.00,,,0.00,VWS V14.01,2013-07-10 13:23:00,
2013-07-10 07:25:00,48.0,46.1,29.94,WSW,255,1.0,3.0,93,0.00,,,0.00,VWS V14.01,2013-07-10 13:25:00,
2013-07-10 07:28:00,56.3,50.9,29.94,NW,305,2.0,2.0,82,0.00,,,0.00,VWS V14.01,2013-07-10 13:28:00,
2013-07-10 07:30:00,48.4,46.5,29.94,West,266,1.0,2.0,93,0.00,,,0.00,VWS V14.01,2013-07-10 13:30:00,
2013-07-10 07:33:00,56.1,50.4,29.94,NW,316,1.0,2.0,81,0.00,,,0.00,VWS V14.01,2013-07-10 13:33:00,
2013-07-10 07:35:00,48.7,46.5,29.94,West,267,0.0,1.0,92,0.00,,,0.00,VWS V14.01,2013-07-10 13:35:00,
2013-07-10 07:38:00,56.4,51.0,29.94,North,354,1.0,2.0,82,0.00,,,0.00,VWS V14.01,2013-07-10 13:38:00,
2013-07-10 07:40:00,48.9,46.4,29.94,West,267,0.0,0.0,91,0.00,,,0.00,VWS V14.01,2013-07-10 13:40:00,
2013-07-10 07:43:00,57.1,51.3,29.94,North,9,0.0,0.0,81,0.00,,,0.00,VWS V14.01,2013-07-10 13:43:00,
2013-07-10 07:45:00,49.8,47.6,29.94,West,266,0.0,0.0,92,0.00,,,0.00,VWS V14.01,2013-07-10 13:45:00,
2013-07-10 07:48:00,57.5,51.4,29.94,North,356,0.0,0.0,80,0.00,,,0.00,VWS V14.01,2013-07-10 13:48:00,
2013-07-10 07:50:00,50.8,48.3,29.94,West,267,0.0,1.0,91,0.00,,,0.00,VWS V14.01,2013-07-10 13:50:00,
2013-07-10 07:53:00,57.8,51.3,29.94,NE,48,1.0,2.0,79,0.00,,,0.00,VWS V14.01,2013-07-10 13:53:00,
2013-07-10 07:55:00,51.6,48.8,29.93,West,267,0.0,0.0,90,0.00,,,0.00,VWS V14.01,2013-07-10 13:55:00,
2013-07-10 07:58:00,58.2,51.4,29.94,NNE,28,1.0,2.0,78,0.00,,,0.00,VWS V14.01,2013-07-10 13:58:00,
2013-07-10 08:00:00,52.5,49.4,29.94,West,267,0.0,0.0,89,0.00,,,0.00,VWS V14.01,2013-07-10 14:00:00,
2013-07-10 08:03:00,58.4,51.6,29.94,NNE,27,2.0,4.0,78,0.00,,,0.00,VWS V14.01,2013-07-10 14:03:00,
2013-07-10 08:05:00,53.2,49.4,29.94,WNW,284,0.0,0.0,87,0.00,,,0.00,VWS V14.01,2013-07-10 14:05:00,
2013-07-10 08:08:00,58.8,52.0,29.94,NNE,32,3.0,3.0,78,0.00,,,0.00,VWS V14.01,2013-07-10 14:08:00,
2013-07-10 08:10:00,53.9,50.4,29.94,WNW,284,0.0,0.0,88,0.00,,,0.00,VWS V14.01,2013-07-10 14:10:00,
2013-07-10 08:13:00,59.3,52.1,29.94,NNE,13,3.0,3.0,77,0.00,,,0.00,VWS V14.01,2013-07-10 14:13:00,
2013-07-10 08:15:00,54.6,50.2,29.94,WNW,284,0.0,0.0,85,0.00,,,0.00,VWS V14.01,2013-07-10 14:15:00,
2013-07-10 08:18:00,59.7,51.8,29.94,NNE,15,3.0,4.0,75,0.00,,,0.00,VWS V14.01,2013-07-10 14:18:00,
2013-07-10 08:20:00,55.6,51.2,29.94,WNW,284,0.0,0.0,85,0.00,,,0.00,VWS V14.01,2013-07-10 14:20:00,
2013-07-10 08:23:00,60.0,52.1,29.94,NE,40,3.0,3.0,75,0.00,,,0.00,VWS V14.01,2013-07-10 14:23:00,
2013-07-10 08:25:00,56.3,50.9,29.94,WNW,284,0.0,0.0,82,0.00,,,0.00,VWS V14.01,2013-07-10 14:25:00,
2013-07-10 08:28:00,60.5,52.5,29.94,NW,325,2.0,3.0,75,0.00,,,0.00,VWS V14.01,2013-07-10 14:28:00,
2013-07-10 08:30:00,56.1,50.4,29.94,NNW,329,1.0,3.0,81,0.00,,,0.00,VWS V14.01,2013-07-10 14:30:00,
2013-07-10 08:33:00,61.0,52.7,29.94,NNW,342,1.0,4.0,74,0.00,,,0.00,VWS V14.01,2013-07-10 14:33:00,
2013-07-10 08:35:00,56.2,51.1,29.94,NW,321,1.0,2.0,83,0.00,,,0.00,VWS V14.01,2013-07-10 14:35:00,
2013-07-10 08:38:00,61.2,51.7,29.94,WNW,301,2.0,3.0,71,0.00,,,0.00,VWS V14.01,2013-07-10 14:38:00,
2013-07-10 08:40:00,56.8,51.4,29.94,North,354,0.0,2.0,82,0.00,,,0.00,VWS V14.01,2013-07-10 14:40:00,
2013-07-10 08:43:00,61.4,51.5,29.94,NW,321,3.0,4.0,70,0.00,,,0.00,VWS V14.01,2013-07-10 14:43:00,
2013-07-10 08:45:00,57.4,51.3,29.94,NNW,347,0.0,0.0,80,0.00,,,0.00,VWS V14.01,2013-07-10 14:45:00,
2013-07-10 08:48:00,61.7,52.6,29.94,NNW,345,4.0,4.0,72,0.00,,,0.00,VWS V14.01,2013-07-10 14:48:00,
2013-07-10 08:50:00,57.7,51.6,29.94,NNE,23,0.0,0.0,80,0.00,,,0.00,VWS V14.01,2013-07-10 14:50:00,
2013-07-10 08:53:00,61.9,52.0,29.93,NW,316,2.0,4.0,70,0.00,,,0.00,VWS V14.01,2013-07-10 14:53:00,
2013-07-10 08:55:00,58.0,51.5,29.94,NNE,27,2.0,2.0,79,0.00,,,0.00,VWS V14.01,2013-07-10 14:55:00,
2013-07-10 08:58:00,62.0,51.7,29.93,NW,311,2.0,4.0,69,0.00,,,0.00,VWS V14.01,2013-07-10 14:58:00,
2013-07-10 09:00:00,58.4,51.6,29.94,NE,44,4.0,4.0,78,0.00,,,0.00,VWS V14.01,2013-07-10 15:00:00,
2013-07-10 09:03:00,62.4,52.9,29.93,NW,316,1.0,3.0,71,0.00,,,0.00,VWS V14.01,2013-07-10 15:03:00,
2013-07-10 09:05:00,58.6,51.8,29.94,North,5,3.0,4.0,78,0.00,,,0.00,VWS V14.01,2013-07-10 15:05:00,
2013-07-10 09:08:00,63.3,53.4,29.93,WNW,292,3.0,3.0,70,0.00,,,0.00,VWS V14.01,2013-07-10 15:08:00,
2013-07-10 09:10:00,59.0,52.2,29.94,NNE,19,0.0,3.0,78,0.00,,,0.00,VWS V14.01,2013-07-10 15:10:00,
2013-07-10 09:13:00,63.2,53.3,29.93,NW,307,3.0,4.0,70,0.00,,,0.00,VWS V14.01,2013-07-10 15:13:00,
2013-07-10 09:15:00,59.6,52.0,29.94,NNE,33,3.0,4.0,76,0.00,,,0.00,VWS V14.01,2013-07-10 15:15:00,
2013-07-10 09:18:00,63.5,53.2,29.93,West,276,2.0,4.0,69,0.00,,,0.00,VWS V14.01,2013-07-10 15:18:00,
2013-07-10 09:20:00,59.8,52.2,29.94,NNE,20,3.0,4.0,76,0.00,,,0.00,VWS V14.01,2013-07-10 15:20:00,
2013-07-10 09:23:00,63.6,53.3,29.93,NW,319,4.0,4.0,69,0.00,,,0.00,VWS V14.01,2013-07-10 15:23:00,
2013-07-10 09:25:00,60.2,52.6,29.94,NNE,27,1.0,3.0,76,0.00,,,0.00,VWS V14.01,2013-07-10 15:25:00,
2013-07-10 09:28:00,63.9,53.5,29.93,North,5,3.0,4.0,69,0.00,,,0.00,VWS V14.01,2013-07-10 15:28:00,
2013-07-10 09:30:00,60.8,52.8,29.94,North,352,1.0,3.0,75,0.00,,,0.00,VWS V14.01,2013-07-10 15:30:00,
2013-07-10 09:33:00,64.5,53.7,29.93,WNW,284,1.0,5.0,68,0.00,,,0.00,VWS V14.01,2013-07-10 15:33:00,
2013-07-10 09:35:00,61.2,52.5,29.94,North,359,3.0,4.0,73,0.00,,,0.00,VWS V14.01,2013-07-10 15:35:00,
2013-07-10 09:38:00,64.9,53.3,29.92,NW,304,1.0,5.0,66,0.00,,,0.00,VWS V14.01,2013-07-10 15:38:00,
2013-07-10 09:40:00,61.3,52.2,29.94,West,273,1.0,4.0,72,0.00,,,0.00,VWS V14.01,2013-07-10 15:40:00,
2013-07-10 09:43:00,65.2,53.2,29.92,NW,315,5.0,5.0,65,0.00,,,0.00,VWS V14.01,2013-07-10 15:43:00,
2013-07-10 09:45:00,61.5,51.6,29.94,NNE,12,3.0,4.0,70,0.00,,,0.00,VWS V14.01,2013-07-10 15:45:00,
2013-07-10 09:48:00,65.5,52.2,29.92,WNW,303,4.0,5.0,62,0.00,,,0.00,VWS V14.01,2013-07-10 15:48:00,
2013-07-10 09:50:00,61.8,52.3,29.94,WNW,285,3.0,4.0,71,0.00,,,0.00,VWS V14.01,2013-07-10 15:50:00,
2013-07-10 09:53:00,65.6,52.7,29.92,West,267,2.0,5.0,63,0.00,,,0.00,VWS V14.01,2013-07-10 15:53:00,
2013-07-10 09:55:00,61.9,51.6,29.93,NW,312,4.0,5.0,69,0.00,,,0.00,VWS V14.01,2013-07-10 15:55:00,
2013-07-10 09:58:00,66.2,53.2,29.92,WNW,300,3.0,4.0,63,0.00,,,0.00,VWS V14.01,2013-07-10 15:58:00,
2013-07-10 10:00:00,62.0,51.7,29.94,West,268,2.0,4.0,69,0.00,,,0.00,VWS V14.01,2013-07-10 16:00:00,
2013-07-10 10:03:00,67.0,52.7,29.92,WNW,285,3.0,4.0,60,0.00,,,0.00,VWS V14.01,2013-07-10 16:03:00,
2013-07-10 10:05:00,62.9,53.8,29.93,West,278,2.0,3.0,72,0.00,,,0.00,VWS V14.01,2013-07-10 16:05:00,
2013-07-10 10:08:00,67.6,52.8,29.92,NNW,342,2.0,4.0,59,0.00,,,0.00,VWS V14.01,2013-07-10 16:08:00,
2013-07-10 10:10:00,63.3,53.4,29.94,WNW,301,3.0,5.0,70,0.00,,,0.00,VWS V14.01,2013-07-10 16:10:00,
2013-07-10 10:13:00,67.8,53.4,29.92,NNW,332,4.0,4.0,60,0.00,,,0.00,VWS V14.01,2013-07-10 16:13:00,
2013-07-10 10:15:00,63.2,53.3,29.93,NNW,346,4.0,4.0,70,0.00,,,0.00,VWS V14.01,2013-07-10 16:15:00,
2013-07-10 10:18:00,68.2,53.3,29.92,North,360,2.0,5.0,59,0.00,,,0.00,VWS V14.01,2013-07-10 16:18:00,
2013-07-10 10:20:00,63.7,53.3,29.93,NW,315,2.0,5.0,69,0.00,,,0.00,VWS V14.01,2013-07-10 16:20:00,
2013-07-10 10:23:00,68.4,54.0,29.92,WNW,293,2.0,5.0,60,0.00,,,0.00,VWS V14.01,2013-07-10 16:23:00,
2013-07-10 10:25:00,63.7,53.7,29.93,NW,321,3.0,4.0,70,0.00,,,0.00,VWS V14.01,2013-07-10 16:25:00,
2013-07-10 10:28:00,68.9,51.6,29.92,NW,316,3.0,5.0,54,0.00,,,0.00,VWS V14.01,2013-07-10 16:28:00,
2013-07-10 10:30:00,64.1,53.7,29.93,NW,314,4.0,5.0,69,0.00,,,0.00,VWS V14.01,2013-07-10 16:30:00,
2013-07-10 10:33:00,69.2,53.3,29.91,North,1,3.0,5.0,57,0.00,,,0.00,VWS V14.01,2013-07-10 16:33:00,
2013-07-10 10:35:00,64.8,53.6,29.93,NW,322,3.0,5.0,67,0.00,,,0.00,VWS V14.01,2013-07-10 16:35:00,
2013-07-10 10:38:00,69.9,54.5,29.91,North,353,1.0,6.0,58,0.00,,,0.00,VWS V14.01,2013-07-10 16:38:00,
2013-07-10 10:40:00,65.2,53.6,29.92,WNW,303,3.0,5.0,66,0.00,,,0.00,VWS V14.01,2013-07-10 16:40:00,
2013-07-10 10:43:00,69.9,54.5,29.91,NE,41,5.0,7.0,58,0.00,,,0.00,VWS V14.01,2013-07-10 16:43:00,
2013-07-10 10:45:00,65.4,52.9,29.92,WNW,301,3.0,5.0,64,0.00,,,0.00,VWS V14.01,2013-07-10 16:45:00,
2013-07-10 10:48:00,70.0,55.5,29.91,ENE,65,2.0,4.0,60,0.00,,,0.00,VWS V14.01,2013-07-10 16:48:00,
2013-07-10 10:50:00,65.5,52.6,29.92,NNW,344,2.0,5.0,63,0.00,,,0.00,VWS V14.01,2013-07-10 16:50:00,
2013-07-10 10:53:00,70.6,54.6,29.91,ENE,60,3.0,5.0,57,0.00,,,0.00,VWS V14.01,2013-07-10 16:53:00,
2013-07-10 10:55:00,65.9,53.4,29.92,NW,317,2.0,5.0,64,0.00,,,0.00,VWS V14.01,2013-07-10 16:55:00,
2013-07-10 10:58:00,71.0,54.0,29.91,SE,145,2.0,4.0,55,0.00,,,0.00,VWS V14.01,2013-07-10 16:58:00,
2013-07-10 11:00:00,66.6,53.2,29.92,North,354,2.0,4.0,62,0.00,,,0.00,VWS V14.01,2013-07-10 17:00:00,
2013-07-10 11:03:00,71.7,54.2,29.91,ESE,114,2.0,3.0,54,0.00,,,0.00,VWS V14.01,2013-07-10 17:03:00,
2013-07-10 11:05:00,67.4,53.5,29.92,NNW,337,2.0,4.0,61,0.00,,,0.00,VWS V14.01,2013-07-10 17:05:00,
2013-07-10 11:08:00,71.8,54.3,29.90,ENE,75,3.0,5.0,54,0.00,,,0.00,VWS V14.01,2013-07-10 17:08:00,
2013-07-10 11:10:00,67.7,52.9,29.92,NW,321,3.0,4.0,59,0.00,,,0.00,VWS V14.01,2013-07-10 17:10:00,
2013-07-10 11:13:00,72.0,53.4,29.90,ENE,71,3.0,5.0,52,0.00,,,0.00,VWS V14.01,2013-07-10 17:13:00,
2013-07-10 11:15:00,68.0,53.2,29.92,NW,311,2.0,4.0,59,0.00,,,0.00,VWS V14.01,2013-07-10 17:15:00,
2013-07-10 11:18:00,72.3,53.7,29.90,NNE,17,1.0,4.0,52,0.00,,,0.00,VWS V14.01,2013-07-10 17:18:00,
2013-07-10 11:20:00,68.3,53.4,29.92,WNW,299,3.0,5.0,59,0.00,,,0.00,VWS V14.01,2013-07-10 17:20:00,
2013-07-10 11:23:00,72.4,53.3,29.90,ESE,117,2.0,6.0,51,0.00,,,0.00,VWS V14.01,2013-07-10 17:23:00,
2013-07-10 11:25:00,68.7,54.3,29.91,NW,317,2.0,5.0,60,0.00,,,0.00,VWS V14.01,2013-07-10 17:25:00,
2013-07-10 11:28:00,72.6,53.5,29.90,East,89,3.0,4.0,51,0.00,,,0.00,VWS V14.01,2013-07-10 17:28:00,
2013-07-10 11:30:00,68.9,52.6,29.92,NNW,335,4.0,5.0,56,0.00,,,0.00,VWS V14.01,2013-07-10 17:30:00,
2013-07-10 11:33:00,73.1,53.9,29.89,ESE,104,4.0,4.0,51,0.00,,,0.00,VWS V14.01,2013-07-10 17:33:00,
2013-07-10 11:35:00,69.6,54.2,29.91,NW,314,2.0,5.0,58,0.00,,,0.00,VWS V14.01,2013-07-10 17:35:00,
2013-07-10 11:38:00,73.4,54.2,29.89,SE,131,4.0,4.0,51,0.00,,,0.00,VWS V14.01,2013-07-10 17:38:00,
2013-07-10 11:40:00,70.0,55.0,29.91,NNW,332,3.0,8.0,59,0.00,,,0.00,VWS V14.01,2013-07-10 17:40:00,
2013-07-10 11:43:00,73.5,54.3,29.89,SE,141,3.0,5.0,51,0.00,,,0.00,VWS V14.01,2013-07-10 17:43:00,
2013-07-10 11:45:00,69.7,54.8,29.91,ENE,60,2.0,7.0,59,0.00,,,0.00,VWS V14.01,2013-07-10 17:45:00,
2013-07-10 11:48:00,74.0,53.7,29.89,South,181,3.0,4.0,49,0.00,,,0.00,VWS V14.01,2013-07-10 17:48:00,
2013-07-10 11:50:00,70.4,56.3,29.91,NE,34,3.0,4.0,61,0.00,,,0.00,VWS V14.01,2013-07-10 17:50:00,
2013-07-10 11:53:00,74.5,55.2,29.88,SE,145,2.0,4.0,51,0.00,,,0.00,VWS V14.01,2013-07-10 17:53:00,
2013-07-10 11:55:00,70.9,54.4,29.91,ENE,69,4.0,5.0,56,0.00,,,0.00,VWS V14.01,2013-07-10 17:55:00,
2013-07-10 11:58:00,75.5,56.1,29.88,SSW,198,1.0,2.0,51,0.00,,,0.00,VWS V14.01,2013-07-10 17:58:00,
2013-07-10 12:00:00,71.2,54.2,29.91,East,93,0.0,4.0,55,0.00,,,0.00,VWS V14.01,2013-07-10 18:00:00,
2013-07-10 12:03:00,75.9,54.2,29.88,SE,129,2.0,6.0,47,0.00,,,0.00,VWS V14.01,2013-07-10 18:03:00,
2013-07-10 12:05:00,72.0,54.0,29.91,NE,47,3.0,3.0,53,0.00,,,0.00,VWS V14.01,2013-07-10 18:05:00,
2013-07-10 12:08:00,76.0,55.5,29.88,ESE,122,2.0,4.0,49,0.00,,,0.00,VWS V14.01,2013-07-10 18:08:00,
2013-07-10 12:10:00,71.7,53.7,29.90,NNE,32,1.0,5.0,53,0.00,,,0.00,VWS V14.01,2013-07-10 18:10:00,
2013-07-10 12:13:00,76.3,55.8,29.87,SSE,150,3.0,4.0,49,0.00,,,0.00,VWS V14.01,2013-07-10 18:13:00,
2013-07-10 12:15:00,72.1,53.0,29.90,East,90,2.0,5.0,51,0.00,,,0.00,VWS V14.01,2013-07-10 18:15:00,
2013-07-10 12:18:00,76.3,56.3,29.87,SE,128,2.0,5.0,50,0.00,,,0.00,VWS V14.01,2013-07-10 18:18:00,
2013-07-10 12:20:00,72.3,53.7,29.90,South,176,1.0,4.0,52,0.00,,,0.00,VWS V14.01,2013-07-10 18:20:00,
2013-07-10 12:23:00,76.6,54.9,29.87,South,169,2.0,4.0,47,0.00,,,0.00,VWS V14.01,2013-07-10 18:23:00,
2013-07-10 12:25:00,72.4,54.3,29.90,SE,146,2.0,6.0,53,0.00,,,0.00,VWS V14.01,2013-07-10 18:25:00,
2013-07-10 12:28:00,77.0,55.2,29.86,ENE,57,2.0,4.0,47,0.00,,,0.00,VWS V14.01,2013-07-10 18:28:00,
2013-07-10 12:30:00,72.6,54.0,29.89,SW,225,1.0,4.0,52,0.00,,,0.00,VWS V14.01,2013-07-10 18:30:00,
2013-07-10 12:33:00,77.3,55.5,29.86,ESE,111,1.0,4.0,47,0.00,,,0.00,VWS V14.01,2013-07-10 18:33:00,
2013-07-10 12:35:00,73.1,53.9,29.89,ESE,118,1.0,5.0,51,0.00,,,0.00,VWS V14.01,2013-07-10 18:35:00,
2013-07-10 12:38:00,77.8,55.4,29.86,SSE,160,1.0,5.0,46,0.00,,,0.00,VWS V14.01,2013-07-10 18:38:00,
2013-07-10 12:40:00,73.4,53.1,29.89,ESE,111,5.0,5.0,49,0.00,,,0.00,VWS V14.01,2013-07-10 18:40:00,
2013-07-10 12:44:00,78.2,56.3,29.86,ESE,115,3.0,5.0,47,0.00,,,0.00,VWS V14.01,2013-07-10 18:44:00,
2013-07-10 12:45:00,73.8,54.6,29.89,SE,135,3.0,5.0,51,0.00,,,0.00,VWS V14.01,2013-07-10 18:45:00,
2013-07-10 12:49:00,78.2,55.1,29.86,South,173,1.0,5.0,45,0.00,,,0.00,VWS V14.01,2013-07-10 18:49:00,
2013-07-10 12:50:00,74.2,54.9,29.88,ESE,116,4.0,4.0,51,0.00,,,0.00,VWS V14.01,2013-07-10 18:50:00,
2013-07-10 12:54:00,78.8,55.7,29.85,SSE,148,4.0,4.0,45,0.00,,,0.00,VWS V14.01,2013-07-10 18:54:00,
2013-07-10 12:55:00,74.8,54.4,29.88,SE,134,0.0,4.0,49,0.00,,,0.00,VWS V14.01,2013-07-10 18:55:00,
2013-07-10 12:59:00,79.4,56.8,29.85,ESE,121,5.0,5.0,46,0.00,,,0.00,VWS V14.01,2013-07-10 18:59:00,
2013-07-10 13:00:00,75.9,55.4,29.88,SW,219,3.0,5.0,49,0.00,,,0.00,VWS V14.01,2013-07-10 19:00:00,
2013-07-10 13:04:00,79.8,55.3,29.85,South,191,2.0,5.0,43,0.00,,,0.00,VWS V14.01,2013-07-10 19:04:00,
2013-07-10 13:05:00,75.9,56.5,29.88,SE,134,1.0,6.0,51,0.00,,,0.00,VWS V14.01,2013-07-10 19:05:00,
2013-07-10 13:09:00,80.1,55.6,29.85,SSE,166,1.0,5.0,43,0.00,,,0.00,VWS V14.01,2013-07-10 19:09:00,
2013-07-10 13:10:00,76.1,55.6,29.88,SW,228,2.0,4.0,49,0.00,,,0.00,VWS V14.01,2013-07-10 19:10:00,
2013-07-10 13:14:00,80.5,53.3,29.84,SE,146,4.0,6.0,39,0.00,,,0.00,VWS V14.01,2013-07-10 19:14:00,
2013-07-10 13:15:00,76.3,55.8,29.87,SE,136,3.0,5.0,49,0.00,,,0.00,VWS V14.01,2013-07-10 19:15:00,
2013-07-10 13:19:00,81.1,54.5,29.84,SSE,149,4.0,6.0,40,0.00,,,0.00,VWS V14.01,2013-07-10 19:19:00,
2013-07-10 13:20:00,76.5,55.4,29.87,SSE,151,3.0,5.0,48,0.00,,,0.00,VWS V14.01,2013-07-10 19:20:00,
2013-07-10 13:24:00,81.3,51.1,29.83,SSE,160,5.0,7.0,35,0.00,,,0.00,VWS V14.01,2013-07-10 19:24:00,
2013-07-10 13:25:00,76.8,55.7,29.87,SE,129,2.0,5.0,48,0.00,,,0.00,VWS V14.01,2013-07-10 19:25:00,
2013-07-10 13:29:00,81.5,48.8,29.83,East,91,3.0,7.0,32,0.00,,,0.00,VWS V14.01,2013-07-10 19:29:00,
2013-07-10 13:30:00,77.1,55.3,29.86,SE,125,1.0,5.0,47,0.00,,,0.00,VWS V14.01,2013-07-10 19:30:00,
2013-07-10 13:34:00,81.9,51.6,29.83,ENE,70,7.0,7.0,35,0.00,,,0.00,VWS V14.01,2013-07-10 19:34:00,
2013-07-10 13:35:00,77.6,55.8,29.86,ESE,104,5.0,6.0,47,0.00,,,0.00,VWS V14.01,2013-07-10 19:35:00,
2013-07-10 13:39:00,82.5,49.7,29.83,ESE,119,4.0,9.0,32,0.00,,,0.00,VWS V14.01,2013-07-10 19:39:00,
2013-07-10 13:40:00,77.9,56.1,29.86,SE,145,2.0,5.0,47,0.00,,,0.00,VWS V14.01,2013-07-10 19:40:00,
2013-07-10 13:44:00,82.5,48.0,29.83,SSE,153,2.0,7.0,30,0.00,,,0.00,VWS V14.01,2013-07-10 19:44:00,
2013-07-10 13:45:00,78.3,55.8,29.86,ENE,74,3.0,5.0,46,0.00,,,0.00,VWS V14.01,2013-07-10 19:45:00,
2013-07-10 13:49:00,82.6,48.1,29.83,ESE,113,6.0,7.0,30,0.00,,,0.00,VWS V14.01,2013-07-10 19:49:00,
2013-07-10 13:50:00,78.3,55.2,29.86,ESE,120,4.0,5.0,45,0.00,,,0.00,VWS V14.01,2013-07-10 19:50:00,
2013-07-10 13:54:00,82.5,48.0,29.82,SSE,156,3.0,6.0,30,0.00,,,0.00,VWS V14.01,2013-07-10 19:54:00,
2013-07-10 13:55:00,79.0,55.9,29.86,SE,136,2.0,4.0,45,0.00,,,0.00,VWS V14.01,2013-07-10 19:55:00,
2013-07-10 13:59:00,82.7,49.0,29.82,South,173,2.0,5.0,31,0.00,,,0.00,VWS V14.01,2013-07-10 19:59:00,
2013-07-10 14:00:00,79.5,54.4,29.85,SE,146,4.0,5.0,42,0.00,,,0.00,VWS V14.01,2013-07-10 20:00:00,
2013-07-10 14:04:00,83.2,47.7,29.82,South,188,5.0,6.0,29,0.00,,,0.00,VWS V14.01,2013-07-10 20:04:00,
2013-07-10 14:05:00,79.9,54.1,29.85,SE,146,0.0,6.0,41,0.00,,,0.00,VWS V14.01,2013-07-10 20:05:00,
2013-07-10 14:09:00,83.3,45.9,29.81,SE,146,3.0,5.0,27,0.00,,,0.00,VWS V14.01,2013-07-10 20:09:00,
2013-07-10 14:10:00,80.1,52.9,29.85,East,97,3.0,5.0,39,0.00,,,0.00,VWS V14.01,2013-07-10 20:10:00,
2013-07-10 14:14:00,83.6,47.1,29.81,SSE,149,2.0,7.0,28,0.00,,,0.00,VWS V14.01,2013-07-10 20:14:00,
2013-07-10 14:15:00,80.6,54.1,29.84,East,99,3.0,6.0,40,0.00,,,0.00,VWS V14.01,2013-07-10 20:15:00,
2013-07-10 14:19:00,83.9,48.3,29.81,SSE,156,6.0,7.0,29,0.00,,,0.00,VWS V14.01,2013-07-10 20:19:00,
2013-07-10 14:20:00,81.2,52.5,29.84,SSE,153,3.0,6.0,37,0.00,,,0.00,VWS V14.01,2013-07-10 20:20:00,
2013-07-10 14:24:00,84.3,48.6,29.81,ESE,110,3.0,7.0,29,0.00,,,0.00,VWS V14.01,2013-07-10 20:24:00,
2013-07-10 14:25:00,81.5,50.5,29.84,SSW,197,2.0,7.0,34,0.00,,,0.00,VWS V14.01,2013-07-10 20:25:00,
2013-07-10 14:29:00,84.5,45.9,29.81,SSE,150,5.0,8.0,26,0.00,,,0.00,VWS V14.01,2013-07-10 20:29:00,
2013-07-10 14:30:00,81.5,48.8,29.83,SSW,195,3.0,7.0,32,0.00,,,0.00,VWS V14.01,2013-07-10 20:30:00,
2013-07-10 14:34:00,84.2,46.6,29.80,ESE,120,7.0,9.0,27,0.00,,,0.00,VWS V14.01,2013-07-10 20:34:00,
2013-07-10 14:35:00,82.2,47.7,29.83,ENE,60,5.0,7.0,30,0.00,,,0.00,VWS V14.01,2013-07-10 20:35:00,
2013-07-10 14:39:00,84.3,47.7,29.80,SE,134,3.0,7.0,28,0.00,,,0.00,VWS V14.01,2013-07-10 20:39:00,
2013-07-10 14:40:00,82.5,51.3,29.83,SE,136,4.0,9.0,34,0.00,,,0.00,VWS V14.01,2013-07-10 20:40:00,
2013-07-10 14:44:00,84.3,46.7,29.80,SE,135,4.0,8.0,27,0.00,,,0.00,VWS V14.01,2013-07-10 20:44:00,
2013-07-10 14:45:00,82.5,51.3,29.83,ESE,115,5.0,7.0,34,0.00,,,0.00,VWS V14.01,2013-07-10 20:45:00,
2013-07-10 14:49:00,84.3,45.7,29.79,SSE,153,5.0,7.0,26,0.00,,,0.00,VWS V14.01,2013-07-10 20:49:00,
2013-07-10 14:50:00,82.6,47.2,29.83,ESE,115,5.0,7.0,29,0.00,,,0.00,VWS V14.01,2013-07-10 20:50:00,
2013-07-10 14:54:00,83.9,49.2,29.79,SSE,150,4.0,9.0,30,0.00,,,0.00,VWS V14.01,2013-07-10 20:54:00,
2013-07-10 14:55:00,82.6,48.9,29.82,SSE,149,3.0,6.0,31,0.00,,,0.00,VWS V14.01,2013-07-10 20:55:00,
2013-07-10 14:59:00,84.1,47.5,29.79,ESE,115,4.0,6.0,28,0.00,,,0.00,VWS V14.01,2013-07-10 20:59:00,
2013-07-10 15:00:00,82.9,48.3,29.82,SSW,197,5.0,5.0,30,0.00,,,0.00,VWS V14.01,2013-07-10 21:00:00,
2013-07-10 15:04:00,84.3,49.5,29.79,SSE,166,5.0,7.0,30,0.00,,,0.00,VWS V14.01,2013-07-10 21:04:00,
2013-07-10 15:05:00,83.4,46.9,29.82,SE,141,5.0,7.0,28,0.00,,,0.00,VWS V14.01,2013-07-10 21:05:00,
2013-07-10 15:09:00,84.6,46.0,29.79,SE,145,6.0,6.0,26,0.00,,,0.00,VWS V14.01,2013-07-10 21:09:00,
2013-07-10 15:10:00,83.4,47.8,29.81,SSE,155,3.0,7.0,29,0.00,,,0.00,VWS V14.01,2013-07-10 21:10:00,
2013-07-10 15:14:00,84.7,45.0,29.78,SE,146,3.0,7.0,25,0.00,,,0.00,VWS V14.01,2013-07-10 21:14:00,
2013-07-10 15:15:00,83.8,50.0,29.81,East,96,4.0,7.0,31,0.00,,,0.00,VWS V14.01,2013-07-10 21:15:00,
2013-07-10 15:19:00,84.9,44.1,29.78,SE,145,6.0,7.0,24,0.00,,,0.00,VWS V14.01,2013-07-10 21:19:00,
2013-07-10 15:20:00,83.9,49.2,29.81,SE,124,3.0,7.0,30,0.00,,,0.00,VWS V14.01,2013-07-10 21:20:00,
2013-07-10 15:24:00,85.1,46.4,29.78,SE,127,3.0,7.0,26,0.00,,,0.00,VWS V14.01,2013-07-10 21:24:00,
2013-07-10 15:25:00,84.4,51.3,29.81,SE,134,3.0,8.0,32,0.00,,,0.00,VWS V14.01,2013-07-10 21:25:00,
2013-07-10 15:29:00,84.9,44.1,29.77,ESE,104,5.0,7.0,24,0.00,,,0.00,VWS V14.01,2013-07-10 21:29:00,
2013-07-10 15:30:00,84.3,47.7,29.80,SE,146,3.0,8.0,28,0.00,,,0.00,VWS V14.01,2013-07-10 21:30:00,
2013-07-10 15:34:00,85.2,46.5,29.77,South,191,3.0,6.0,26,0.00,,,0.00,VWS V14.01,2013-07-10 21:34:00,
2013-07-10 15:35:00,84.3,47.7,29.80,East,97,6.0,9.0,28,0.00,,,0.00,VWS V14.01,2013-07-10 21:35:00,
2013-07-10 15:39:00,85.6,46.8,29.77,SE,125,5.0,6.0,26,0.00,,,0.00,VWS V14.01,2013-07-10 21:39:00,
2013-07-10 15:40:00,84.4,46.8,29.80,South,184,5.0,7.0,27,0.00,,,0.00,VWS V14.01,2013-07-10 21:40:00,
2013-07-10 15:44:00,85.6,48.8,29.77,ESE,117,5.0,9.0,28,0.00,,,0.00,VWS V14.01,2013-07-10 21:44:00,
2013-07-10 15:45:00,84.4,48.7,29.80,SE,134,3.0,8.0,29,0.00,,,0.00,VWS V14.01,2013-07-10 21:45:00,
2013-07-10 15:49:00,85.6,48.8,29.76,SE,141,3.0,7.0,28,0.00,,,0.00,VWS V14.01,2013-07-10 21:49:00,
2013-07-10 15:50:00,84.2,46.6,29.79,East,98,7.0,8.0,27,0.00,,,0.00,VWS V14.01,2013-07-10 21:50:00,
2013-07-10 15:54:00,85.4,47.7,29.76,SE,128,3.0,7.0,27,0.00,,,0.00,VWS V14.01,2013-07-10 21:54:00,
2013-07-10 15:55:00,84.0,48.4,29.79,SE,146,5.0,9.0,29,0.00,,,0.00,VWS V14.01,2013-07-10 21:55:00,
2013-07-10 15:59:00,85.7,47.9,29.76,SE,126,3.0,5.0,27,0.00,,,0.00,VWS V14.01,2013-07-10 21:59:00,
2013-07-10 16:00:00,84.1,49.3,29.79,SSE,153,3.0,6.0,30,0.00,,,0.00,VWS V14.01,2013-07-10 22:00:00,
2013-07-10 16:04:00,86.3,48.4,29.76,SSE,165,2.0,7.0,27,0.00,,,0.00,VWS V14.01,2013-07-10 22:04:00,
2013-07-10 16:05:00,84.3,46.7,29.79,ESE,108,5.0,8.0,27,0.00,,,0.00,VWS V14.01,2013-07-10 22:05:00,
2013-07-10 16:09:00,86.2,47.3,29.76,SSE,160,6.0,6.0,26,0.00,,,0.00,VWS V14.01,2013-07-10 22:09:00,
2013-07-10 16:10:00,84.7,46.1,29.79,SSE,150,5.0,7.0,26,0.00,,,0.00,VWS V14.01,2013-07-10 22:10:00,
2013-07-10 16:14:00,86.3,47.4,29.75,SE,127,5.0,5.0,26,0.00,,,0.00,VWS V14.01,2013-07-10 22:14:00,
2013-07-10 16:15:00,84.8,47.1,29.78,SSE,152,4.0,7.0,27,0.00,,,0.00,VWS V14.01,2013-07-10 22:15:00,
2013-07-10 16:19:00,86.2,49.3,29.75,ESE,104,1.0,6.0,28,0.00,,,0.00,VWS V14.01,2013-07-10 22:19:00,
2013-07-10 16:20:00,84.9,45.2,29.78,South,184,4.0,7.0,25,0.00,,,0.00,VWS V14.01,2013-07-10 22:20:00,
2013-07-10 16:24:00,86.5,45.5,29.75,ESE,102,6.0,6.0,24,0.00,,,0.00,VWS V14.01,2013-07-10 22:24:00,
2013-07-10 16:25:00,85.1,44.3,29.78,ESE,122,4.0,8.0,24,0.00,,,0.00,VWS V14.01,2013-07-10 22:25:00,
2013-07-10 16:29:00,86.5,47.6,29.75,ESE,108,6.0,6.0,26,0.00,,,0.00,VWS V14.01,2013-07-10 22:29:00,
2013-07-10 16:30:00,85.0,45.3,29.77,SSE,167,4.0,9.0,25,0.00,,,0.00,VWS V14.01,2013-07-10 22:30:00,
2013-07-10 16:34:00,86.4,47.5,29.75,South,172,3.0,6.0,26,0.00,,,0.00,VWS V14.01,2013-07-10 22:34:00,
2013-07-10 16:35:00,85.2,47.5,29.77,SE,146,4.0,6.0,27,0.00,,,0.00,VWS V14.01,2013-07-10 22:35:00,
2013-07-10 16:39:00,86.6,50.6,29.74,SSE,149,2.0,6.0,29,0.00,,,0.00,VWS V14.01,2013-07-10 22:39:00,
2013-07-10 16:40:00,85.6,46.8,29.77,ESE,108,3.0,6.0,26,0.00,,,0.00,VWS V14.01,2013-07-10 22:40:00,
2013-07-10 16:44:00,86.9,49.9,29.74,ESE,108,4.0,5.0,28,0.00,,,0.00,VWS V14.01,2013-07-10 22:44:00,
2013-07-10 16:45:00,85.5,46.7,29.77,ESE,112,5.0,9.0,26,0.00,,,0.00,VWS V14.01,2013-07-10 22:45:00,
2013-07-10 16:49:00,86.7,48.8,29.74,SSE,166,2.0,6.0,27,0.00,,,0.00,VWS V14.01,2013-07-10 22:49:00,
2013-07-10 16:50:00,85.6,45.8,29.76,SE,136,3.0,7.0,25,0.00,,,0.00,VWS V14.01,2013-07-10 22:50:00,
2013-07-10 16:54:00,87.0,50.0,29.73,East,96,1.0,5.0,28,0.00,,,0.00,VWS V14.01,2013-07-10 22:54:00,
2013-07-10 16:55:00,85.4,47.7,29.76,ESE,115,3.0,7.0,27,0.00,,,0.00,VWS V14.01,2013-07-10 22:55:00,
2013-07-10 16:59:00,87.2,49.2,29.73,ESE,118,1.0,4.0,27,0.00,,,0.00,VWS V14.01,2013-07-10 22:59:00,
2013-07-10 17:00:00,85.8,49.0,29.76,South,178,2.0,5.0,28,0.00,,,0.00,VWS V14.01,2013-07-10 23:00:00,
2013-07-10 17:04:00,87.2,48.2,29.73,East,95,4.0,5.0,26,0.00,,,0.00,VWS V14.01,2013-07-10 23:04:00,
2013-07-10 17:05:00,86.4,47.5,29.76,ESE,105,4.0,7.0,26,0.00,,,0.00,VWS V14.01,2013-07-10 23:05:00,
2013-07-10 17:09:00,87.2,50.2,29.72,WSW,238,2.0,4.0,28,0.00,,,0.00,VWS V14.01,2013-07-10 23:09:00,
2013-07-10 17:10:00,86.1,47.2,29.75,SSW,194,3.0,6.0,26,0.00,,,0.00,VWS V14.01,2013-07-10 23:10:00,
2013-07-10 17:14:00,87.5,49.4,29.72,ESE,108,1.0,5.0,27,0.00,,,0.00,VWS V14.01,2013-07-10 23:14:00,
2013-07-10 17:15:00,86.2,46.3,29.75,SE,129,2.0,6.0,25,0.00,,,0.00,VWS V14.01,2013-07-10 23:15:00,
2013-07-10 17:19:00,87.6,50.5,29.72,ENE,68,4.0,5.0,28,0.00,,,0.00,VWS V14.01,2013-07-10 23:19:00,
2013-07-10 17:20:00,86.3,50.3,29.75,SE,124,2.0,6.0,29,0.00,,,0.00,VWS V14.01,2013-07-10 23:20:00,
2013-07-10 17:24:00,88.0,51.8,29.71,ENE,70,5.0,6.0,29,0.00,,,0.00,VWS V14.01,2013-07-10 23:24:00,
2013-07-10 17:25:00,86.4,47.5,29.75,SE,126,5.0,6.0,26,0.00,,,0.00,VWS V14.01,2013-07-10 23:25:00,
2013-07-10 17:29:00,88.3,51.1,29.71,South,181,4.0,6.0,28,0.00,,,0.00,VWS V14.01,2013-07-10 23:29:00,
2013-07-10 17:30:00,86.5,49.6,29.75,SSE,153,3.0,7.0,28,0.00,,,0.00,VWS V14.01,2013-07-10 23:30:00,
2013-07-10 17:34:00,88.4,54.0,29.71,ESE,111,4.0,5.0,31,0.00,,,0.00,VWS V14.01,2013-07-10 23:34:00,
2013-07-10 17:35:00,86.4,48.5,29.74,SE,142,3.0,6.0,27,0.00,,,0.00,VWS V14.01,2013-07-10 23:35:00,
2013-07-10 17:39:00,88.1,48.9,29.71,East,90,2.0,7.0,26,0.00,,,0.00,VWS V14.01,2013-07-10 23:39:00,
2013-07-10 17:40:00,86.7,51.6,29.74,ESE,112,2.0,6.0,30,0.00,,,0.00,VWS V14.01,2013-07-10 23:40:00,
2013-07-10 17:44:00,88.3,51.1,29.70,SE,138,3.0,5.0,28,0.00,,,0.00,VWS V14.01,2013-07-10 23:44:00,
2013-07-10 17:45:00,86.8,48.8,29.74,SE,128,5.0,6.0,27,0.00,,,0.00,VWS V14.01,2013-07-10 23:45:00,
2013-07-10 17:49:00,88.2,52.0,29.70,SE,128,5.0,6.0,29,0.00,,,0.00,VWS V14.01,2013-07-10 23:49:00,
2013-07-10 17:50:00,86.7,48.8,29.74,SSE,165,3.0,6.0,27,0.00,,,0.00,VWS V14.01,2013-07-10 23:50:00,
2013-07-10 17:54:00,88.0,52.7,29.70,SE,146,2.0,6.0,30,0.00,,,0.00,VWS V14.01,2013-07-10 23:54:00,
2013-07-10 17:55:00,87.0,53.6,29.73,SE,128,2.0,5.0,32,0.00,,,0.00,VWS V14.01,2013-07-10 23:55:00,
2013-07-10 17:59:00,88.6,53.2,29.70,SE,145,1.0,5.0,30,0.00,,,0.00,VWS V14.01,2013-07-10 23:59:00,
2013-07-10 18:00:00,87.3,53.0,29.73,ESE,115,5.0,5.0,31,0.00,,,0.00,VWS V14.01,2013-07-11 00:00:00,
2013-07-10 18:04:00,88.8,52.5,29.69,SE,127,3.0,3.0,29,0.00,,,0.00,VWS V14.01,2013-07-11 00:04:00,
2013-07-10 18:05:00,87.1,49.1,29.73,ESE,110,3.0,5.0,27,0.00,,,0.00,VWS V14.01,2013-07-11 00:05:00,
2013-07-10 18:09:00,88.5,50.3,29.69,SE,128,3.0,4.0,27,0.00,,,0.00,VWS V14.01,2013-07-11 00:09:00,
2013-07-10 18:10:00,87.4,52.2,29.72,SE,131,3.0,4.0,30,0.00,,,0.00,VWS V14.01,2013-07-11 00:10:00,
2013-07-10 18:14:00,88.5,50.3,29.69,SE,142,2.0,3.0,27,0.00,,,0.00,VWS V14.01,2013-07-11 00:14:00,
2013-07-10 18:15:00,87.5,50.4,29.72,ENE,64,1.0,5.0,28,0.00,,,0.00,VWS V14.01,2013-07-11 00:15:00,
2013-07-10 18:19:00,88.4,52.1,29.68,SSE,148,1.0,4.0,29,0.00,,,0.00,VWS V14.01,2013-07-11 00:19:00,
2013-07-10 18:20:00,87.6,49.5,29.72,East,89,2.0,5.0,27,0.00,,,0.00,VWS V14.01,2013-07-11 00:20:00,
2013-07-10 18:24:00,88.4,51.2,29.68,SSE,156,2.0,4.0,28,0.00,,,0.00,VWS V14.01,2013-07-11 00:24:00,
2013-07-10 18:25:00,88.1,52.8,29.71,ESE,102,4.0,6.0,30,0.00,,,0.00,VWS V14.01,2013-07-11 00:25:00,
2013-07-10 18:29:00,88.4,51.2,29.68,SSE,155,2.0,3.0,28,0.00,,,0.00,VWS V14.01,2013-07-11 00:29:00,
2013-07-10 18:30:00,88.3,51.1,29.71,ENE,68,4.0,6.0,28,0.00,,,0.00,VWS V14.01,2013-07-11 00:30:00,
2013-07-10 18:34:00,88.4,49.2,29.68,ESE,108,3.0,4.0,26,0.00,,,0.00,VWS V14.01,2013-07-11 00:34:00,
2013-07-10 18:35:00,88.3,50.1,29.71,ESE,111,3.0,5.0,27,0.00,,,0.00,VWS V14.01,2013-07-11 00:35:00,
2013-07-10 18:39:00,88.3,52.0,29.67,SE,130,1.0,3.0,29,0.00,,,0.00,VWS V14.01,2013-07-11 00:39:00,
2013-07-10 18:40:00,88.1,50.9,29.70,ESE,113,2.0,7.0,28,0.00,,,0.00,VWS V14.01,2013-07-11 00:40:00,
2013-07-10 18:44:00,88.5,51.3,29.67,SE,134,1.0,2.0,28,0.00,,,0.00,VWS V14.01,2013-07-11 00:44:00,
2013-07-10 18:45:00,88.3,52.0,29.70,SE,146,3.0,5.0,29,0.00,,,0.00,VWS V14.01,2013-07-11 00:45:00,
2013-07-10 18:49:00,88.5,52.2,29.67,SE,136,1.0,2.0,29,0.00,,,0.00,VWS V14.01,2013-07-11 00:49:00,
2013-07-10 18:50:00,88.1,50.9,29.70,SE,130,4.0,6.0,28,0.00,,,0.00,VWS V14.01,2013-07-11 00:50:00,
2013-07-10 18:55:00,89.1,51.8,29.67,SSW,205,0.0,2.0,28,0.00,,,0.00,VWS V14.01,2013-07-11 00:55:00,
2013-07-10 19:00:00,89.0,49.7,29.67,SE,141,2.0,2.0,26,0.00,,,0.00,VWS V14.01,2013-07-11 01:00:00,
2013-07-10 19:05:00,88.9,51.6,29.66,SE,131,0.0,2.0,28,0.00,,,0.00,VWS V14.01,2013-07-11 01:05:00,
2013-07-10 19:10:00,88.9,53.5,29.66,SE,135,0.0,3.0,30,0.00,,,0.00,VWS V14.01,2013-07-11 01:10:00,
2013-07-10 19:15:00,89.0,52.7,29.66,SE,141,1.0,1.0,29,0.00,,,0.00,VWS V14.01,2013-07-11 01:15:00,
2013-07-10 19:20:00,89.3,53.8,29.66,SSE,168,0.0,1.0,30,0.00,,,0.00,VWS V14.01,2013-07-11 01:20:00,
2013-07-10 19:25:00,90.0,52.5,29.66,SSW,196,0.0,2.0,28,0.00,,,0.00,VWS V14.01,2013-07-11 01:25:00,
2013-07-10 19:30:00,90.4,56.6,29.66,SW,218,0.0,0.0,32,0.00,,,0.00,VWS V14.01,2013-07-11 01:30:00,
2013-07-10 19:35:00,90.0,55.3,29.65,SW,221,0.0,0.0,31,0.00,,,0.00,VWS V14.01,2013-07-11 01:35:00,
2013-07-10 19:40:00,89.4,51.0,29.65,SW,221,1.0,2.0,27,0.00,,,0.00,VWS V14.01,2013-07-11 01:40:00,
2013-07-10 19:45:00,89.3,52.9,29.65,SW,223,0.0,1.0,29,0.00,,,0.00,VWS V14.01,2013-07-11 01:45:00,
2013-07-10 19:50:00,89.4,53.0,29.65,WSW,240,0.0,1.0,29,0.00,,,0.00,VWS V14.01,2013-07-11 01:50:00,
2013-07-10 19:55:00,89.3,52.0,29.65,WSW,238,0.0,2.0,28,0.00,,,0.00,VWS V14.01,2013-07-11 01:55:00,
2013-07-10 20:00:00,89.4,53.9,29.65,WSW,238,0.0,1.0,30,0.00,,,0.00,VWS V14.01,2013-07-11 02:00:00,
2013-07-10 20:05:00,88.4,62.4,29.65,WSW,237,1.0,1.0,42,0.00,,,0.00,VWS V14.01,2013-07-11 02:05:00,
2013-07-10 20:10:00,86.8,64.8,29.65,WSW,238,0.0,1.0,48,0.00,,,0.00,VWS V14.01,2013-07-11 02:10:00,
2013-07-10 20:15:00,86.0,63.4,29.65,WSW,238,0.0,0.0,47,0.00,,,0.00,VWS V14.01,2013-07-11 02:15:00,
2013-07-10 20:20:00,85.2,66.2,29.65,WSW,238,0.0,0.0,53,0.00,,,0.00,VWS V14.01,2013-07-11 02:20:00,
2013-07-10 20:25:00,83.7,64.8,29.65,WSW,238,0.0,0.0,53,0.00,,,0.00,VWS V14.01,2013-07-11 02:25:00,
2013-07-10 20:30:00,82.4,65.1,29.65,WSW,242,0.0,0.0,56,0.00,,,0.00,VWS V14.01,2013-07-11 02:30:00,
2013-07-10 20:35:00,81.5,63.8,29.65,NE,43,0.0,0.0,55,0.00,,,0.00,VWS V14.01,2013-07-11 02:35:00,
2013-07-10 20:40:00,81.2,60.8,29.65,West,281,0.0,4.0,50,0.00,,,0.00,VWS V14.01,2013-07-11 02:40:00,
2013-07-10 20:45:00,81.6,61.2,29.65,WNW,284,0.0,0.0,50,0.00,,,0.00,VWS V14.01,2013-07-11 02:45:00,
2013-07-10 20:50:00,80.7,64.1,29.65,WNW,297,0.0,3.0,57,0.00,,,0.00,VWS V14.01,2013-07-11 02:50:00,
2013-07-10 20:55:00,79.8,63.7,29.65,WNW,297,0.0,0.0,58,0.00,,,0.00,VWS V14.01,2013-07-11 02:55:00,
2013-07-10 21:00:00,79.2,61.1,29.65,WNW,297,0.0,0.0,54,0.00,,,0.00,VWS V14.01,2013-07-11 03:00:00,
2013-07-10 21:05:00,78.7,62.2,29.64,WNW,295,0.0,0.0,57,0.00,,,0.00,VWS V14.01,2013-07-11 03:05:00,
2013-07-10 21:10:00,77.9,62.9,29.64,West,269,3.0,3.0,60,0.00,,,0.00,VWS V14.01,2013-07-11 03:10:00,
2013-07-10 21:15:00,76.9,58.0,29.64,West,270,0.0,2.0,52,0.00,,,0.00,VWS V14.01,2013-07-11 03:15:00,
2013-07-10 21:20:00,76.3,58.5,29.65,WNW,288,2.0,6.0,54,0.00,,,0.00,VWS V14.01,2013-07-11 03:20:00,
2013-07-10 21:25:00,75.3,57.0,29.64,WNW,288,1.0,3.0,53,0.00,,,0.00,VWS V14.01,2013-07-11 03:25:00,
2013-07-10 21:30:00,75.0,56.7,29.64,WSW,257,1.0,5.0,53,0.00,,,0.00,VWS V14.01,2013-07-11 03:30:00,
2013-07-10 21:35:00,74.0,55.8,29.64,WSW,256,1.0,3.0,53,0.00,,,0.00,VWS V14.01,2013-07-11 03:35:00,
2013-07-10 21:40:00,73.0,55.4,29.65,WSW,245,0.0,2.0,54,0.00,,,0.00,VWS V14.01,2013-07-11 03:40:00,
2013-07-10 21:45:00,72.0,55.0,29.65,WSW,248,0.0,0.0,55,0.00,,,0.00,VWS V14.01,2013-07-11 03:45:00,
2013-07-10 21:50:00,71.2,54.2,29.65,SW,219,0.0,0.0,55,0.00,,,0.00,VWS V14.01,2013-07-11 03:50:00,
2013-07-10 21:55:00,70.8,54.8,29.65,WSW,237,0.0,0.0,57,0.00,,,0.00,VWS V14.01,2013-07-11 03:55:00,
2013-07-10 22:00:00,70.3,53.9,29.65,SW,232,2.0,3.0,56,0.00,,,0.00,VWS V14.01,2013-07-11 04:00:00,
2013-07-10 22:01:00,70.3,53.9,29.65,WSW,240,1.0,2.0,56,0.00,,,0.00,VWS V14.01,2013-07-11 04:01:00,
2013-07-10 22:02:00,70.4,54.0,29.65,WSW,250,1.0,2.0,56,0.00,,,0.00,VWS V14.01,2013-07-11 04:02:00,
2013-07-10 22:05:00,78.7,62.2,29.64,WNW,295,0.0,0.0,57,0.00,,,0.00,VWS V14.01,2013-07-11 04:05:00,
2013-07-10 22:07:00,70.3,53.4,29.65,WSW,237,4.0,4.0,55,0.00,,,0.00,VWS V14.01,2013-07-11 04:07:00,
2013-07-10 22:10:00,77.7,61.3,29.64,West,270,2.0,3.0,57,0.00,,,0.00,VWS V14.01,2013-07-11 04:10:00,
2013-07-10 22:12:00,70.5,53.6,29.65,WSW,257,2.0,2.0,55,0.00,,,0.00,VWS V14.01,2013-07-11 04:12:00,
2013-07-10 22:15:00,77.0,59.6,29.64,West,270,0.0,2.0,55,0.00,,,0.00,VWS V14.01,2013-07-11 04:15:00,
2013-07-10 22:17:00,69.9,53.5,29.66,SW,233,1.0,2.0,56,0.00,,,0.00,VWS V14.01,2013-07-11 04:17:00,
2013-07-10 22:20:00,76.2,58.4,29.65,WNW,295,2.0,6.0,54,0.00,,,0.00,VWS V14.01,2013-07-11 04:20:00,
2013-07-10 22:22:00,69.3,53.4,29.66,SW,232,0.0,0.0,57,0.00,,,0.00,VWS V14.01,2013-07-11 04:22:00,
2013-07-10 22:25:00,75.3,57.0,29.64,WNW,288,0.0,3.0,53,0.00,,,0.00,VWS V14.01,2013-07-11 04:25:00,
2013-07-10 22:27:00,68.0,53.2,29.66,South,174,0.0,0.0,59,0.00,,,0.00,VWS V14.01,2013-07-11 04:27:00,
2013-07-10 22:30:00,74.9,56.6,29.64,WSW,257,1.0,5.0,53,0.00,,,0.00,VWS V14.01,2013-07-11 04:30:00,
2013-07-10 22:32:00,67.5,53.1,29.66,SSE,161,0.0,0.0,60,0.00,,,0.00,VWS V14.01,2013-07-11 04:32:00,
2013-07-10 22:35:00,74.0,55.8,29.64,WSW,256,1.0,3.0,53,0.00,,,0.00,VWS V14.01,2013-07-11 04:35:00,
2013-07-10 22:37:00,67.5,53.1,29.66,SSE,160,0.0,0.0,60,0.00,,,0.00,VWS V14.01,2013-07-11 04:37:00,
2013-07-10 22:40:00,72.9,55.3,29.65,WSW,245,0.0,2.0,54,0.00,,,0.00,VWS V14.01,2013-07-11 04:40:00,
2013-07-10 22:42:00,67.3,53.4,29.66,SSE,160,0.0,0.0,61,0.00,,,0.00,VWS V14.01,2013-07-11 04:42:00,
2013-07-10 22:45:00,72.0,55.0,29.65,WSW,249,0.0,0.0,55,0.00,,,0.00,VWS V14.01,2013-07-11 04:45:00,
2013-07-10 22:47:00,66.4,53.4,29.66,NNW,330,1.0,2.0,63,0.00,,,0.00,VWS V14.01,2013-07-11 04:47:00,
2013-07-10 22:50:00,71.2,54.2,29.65,SW,217,0.0,0.0,55,0.00,,,0.00,VWS V14.01,2013-07-11 04:50:00,
2013-07-10 22:52:00,65.8,53.7,29.66,NW,323,0.0,1.0,65,0.00,,,0.00,VWS V14.01,2013-07-11 04:52:00,
2013-07-10 22:55:00,70.8,54.8,29.65,SW,236,0.0,0.0,57,0.00,,,0.00,VWS V14.01,2013-07-11 04:55:00,
2013-07-10 22:57:00,65.8,53.7,29.66,NW,323,0.0,0.0,65,0.00,,,0.00,VWS V14.01,2013-07-11 04:57:00,
2013-07-10 23:00:00,70.3,53.9,29.65,WSW,240,2.0,3.0,56,0.00,,,0.00,VWS V14.01,2013-07-11 05:00:00,
2013-07-10 23:02:00,65.6,53.5,29.66,NNE,25,1.0,2.0,65,0.00,,,0.00,VWS V14.01,2013-07-11 05:02:00,
2013-07-10 23:05:00,70.5,53.6,29.65,West,269,3.0,4.0,55,0.00,,,0.00,VWS V14.01,2013-07-11 05:05:00,
2013-07-10 23:07:00,65.2,54.4,29.66,NE,56,0.0,0.0,68,0.00,,,0.00,VWS V14.01,2013-07-11 05:07:00,
2013-07-10 23:10:00,70.6,53.2,29.65,WSW,256,1.0,5.0,54,0.00,,,0.00,VWS V14.01,2013-07-11 05:10:00,
2013-07-10 23:12:00,65.0,54.6,29.66,ENE,58,0.0,0.0,69,0.00,,,0.00,VWS V14.01,2013-07-11 05:12:00,
2013-07-10 23:15:00,70.0,53.1,29.65,WSW,257,0.0,2.0,55,0.00,,,0.00,VWS V14.01,2013-07-11 05:15:00,
2013-07-10 23:17:00,65.0,54.2,29.66,ENE,76,1.0,2.0,68,0.00,,,0.00,VWS V14.01,2013-07-11 05:17:00,
2013-07-10 23:20:00,69.6,53.7,29.66,SW,233,0.0,2.0,57,0.00,,,0.00,VWS V14.01,2013-07-11 05:20:00,
2013-07-10 23:22:00,65.2,55.2,29.66,SE,128,1.0,4.0,70,0.00,,,0.00,VWS V14.01,2013-07-11 05:22:00,
2013-07-10 23:25:00,68.4,53.5,29.66,SE,125,0.0,0.0,59,0.00,,,0.00,VWS V14.01,2013-07-11 05:25:00,
2013-07-10 23:27:00,65.4,54.2,29.66,ESE,122,1.0,1.0,67,0.00,,,0.00,VWS V14.01,2013-07-11 05:27:00,
2013-07-10 23:30:00,67.6,53.2,29.66,SSE,161,0.0,0.0,60,0.00,,,0.00,VWS V14.01,2013-07-11 05:30:00,
2013-07-10 23:32:00,66.2,56.1,29.66,ESE,120,1.0,2.0,70,0.00,,,0.00,VWS V14.01,2013-07-11 05:32:00,
2013-07-10 23:35:00,67.6,53.2,29.66,SSE,160,0.0,0.0,60,0.00,,,0.00,VWS V14.01,2013-07-11 05:35:00,
2013-07-10 23:37:00,66.7,55.8,29.66,East,94,2.0,2.0,68,0.00,,,0.00,VWS V14.01,2013-07-11 05:37:00,
2013-07-10 23:40:00,67.5,53.6,29.66,SSE,160,0.0,0.0,61,0.00,,,0.00,VWS V14.01,2013-07-11 05:40:00,
2013-07-10 23:42:00,66.8,56.7,29.66,ESE,110,1.0,2.0,70,0.00,,,0.00,VWS V14.01,2013-07-11 05:42:00,
2013-07-10 23:45:00,66.7,53.7,29.66,NNW,330,2.0,3.0,63,0.00,,,0.00,VWS V14.01,2013-07-11 05:45:00,
2013-07-10 23:47:00,66.5,56.0,29.66,ENE,77,2.0,2.0,69,0.00,,,0.00,VWS V14.01,2013-07-11 05:47:00,
2013-07-10 23:50:00,66.0,53.9,29.66,NNW,330,0.0,2.0,65,0.00,,,0.00,VWS V14.01,2013-07-11 05:50:00,
2013-07-10 23:52:00,66.7,57.0,29.66,SE,145,2.0,2.0,71,0.00,,,0.00,VWS V14.01,2013-07-11 05:52:00,
2013-07-10 23:55:00,65.8,53.7,29.66,NW,323,0.0,1.0,65,0.00,,,0.00,VWS V14.01,2013-07-11 05:55:00,
2013-07-10 23:57:00,65.8,56.5,29.66,SW,217,1.0,2.0,72,0.00,,,0.00,VWS V14.01,2013-07-11 05:57:00,